Terminal Aerodrome Forecast
Issued by NWS

Home | Current Version | Previous Version | Text Only | Print | Product List | Glossary On
Versions: 1 2 3 4 5 6 7 8 9 10 11 12 13 14 15 16 17 18 19 20 21 22 23 24 25 26 27 28 29 30 31
000
FTUS41 KBOX 210912 AAA
TAFBAF
TAF AMD
KBAF 210912Z 2109/2206 36005KT 3SM -SHSN BR OVC015
      TEMPO 2109/2112 2SM -SHSN OVC008
     FM211200 01005KT 2SM -SHSN OVC010
     FM211500 VRB03KT P6SM OVC020
     FM211800 VRB03KT P6SM OVC025
     FM212100 VRB03KT P6SM OVC020
     FM220300 00000KT P6SM BKN025=

USA.gov is the U.S. government's official web portal to all federal, state and local government web resources and services.